| time (UTC) | temp F | wind direction | speed MPH | gust MPH | rain 1hr in | rain 24hr in | rain mn in | humidity % | barometer mb |
| 20260901173034 | 92 | 63 | 0.0 | 0.0 | 0.00 | 0.00 | 0.00 | 71 | 1015.9 |
| 20260901172530 | 92 | 115 | 0.0 | 0.0 | 0.00 | 0.00 | 0.00 | 73 | 1015.6 |
| 20260901172027 | 93 | 135 | 0.0 | 0.0 | 0.00 | 0.00 | 0.00 | 70 | 1015.9 |
| 20260901171527 | 92 | 163 | 0.0 | 0.0 | 0.00 | 0.00 | 0.00 | 69 | 1015.8 |
| 20260901171026 | 92 | 143 | 0.0 | 0.0 | 0.00 | 0.00 | 0.00 | 73 | 1015.9 |
| 20260901170525 | 92 | 157 | 0.0 | 0.0 | 0.00 | 0.00 | 0.00 | 72 | 1015.9 |
| 20260901170021 | 91 | 63 | 0.0 | 0.0 | 0.00 | 0.00 | 0.00 | 72 | 1015.9 |
| 20260901165514 | 92 | 182 | 0.0 | 0.0 | 0.00 | 0.00 | 0.00 | 71 | 1015.7 |
| 20260901165010 | 92 | 145 | 0.0 | 0.0 | 0.00 | 0.00 | 0.00 | 70 | 1015.9 |
| 20260901164506 | 90 | 131 | 0.0 | 0.0 | 0.00 | 0.00 | 0.00 | 75 | 1016.0 |
| 20260901164001 | 88 | 51 | 0.0 | 0.0 | 0.00 | 0.00 | 0.00 | 78 | 1016.2 |
| 20260901163456 | 89 | 204 | 0.0 | 0.0 | 0.00 | 0.00 | 0.00 | 77 | 1015.9 |
| 20260901162954 | 89 | 167 | 0.0 | 0.0 | 0.00 | 0.00 | 0.00 | 78 | 1016.3 |
| 20260901162450 | 89 | 222 | 0.0 | 0.0 | 0.00 | 0.00 | 0.00 | 77 | 1016.3 |
| 20260901161949 | 89 | 259 | 0.0 | 0.0 | 0.00 | 0.00 | 0.00 | 77 | 1016.3 |
| 20260901161448 | 88 | 232 | 0.0 | 0.0 | 0.00 | 0.00 | 0.00 | 78 | 1016.5 |
| 20260901160943 | 87 | 194 | 0.0 | 0.0 | 0.00 | 0.00 | 0.00 | 81 | 1016.7 |
| 20260901160440 | 87 | 270 | 0.0 | 0.0 | 0.00 | 0.00 | 0.00 | 81 | 1016.7 |
| 20260901155939 | 88 | 117 | 0.0 | 0.0 | 0.00 | 0.00 | 0.00 | 83 | 1016.7 |
| 20260901155438 | 89 | 223 | 0.0 | 0.0 | 0.00 | 0.00 | 0.00 | 80 | 1016.7 |
| 20260901154935 | 88 | 180 | 0.0 | 0.0 | 0.00 | 0.00 | 0.00 | 82 | 1016.6 |
| 20260901154434 | 87 | 304 | 0.0 | 0.0 | 0.00 | 0.00 | 0.00 | 84 | 1016.8 |
| 20260901153929 | 88 | 217 | 0.0 | 0.0 | 0.00 | 0.00 | 0.00 | 83 | 1016.8 |
| 20260901153424 | 89 | 180 | 0.0 | 0.0 | 0.00 | 0.00 | 0.00 | 81 | 1016.9 |
| 20260901152918 | 88 | 175 | 0.0 | 0.0 | 0.00 | 0.00 | 0.00 | 81 | 1017.0 |
| 20260901152413 | 89 | 149 | 0.0 | 0.0 | 0.00 | 0.00 | 0.00 | 81 | 1017.0 |
| 20260901151913 | 88 | 172 | 0.0 | 0.0 | 0.00 | 0.00 | 0.00 | 82 | 1016.9 |
| 20260901151413 | 87 | 153 | 0.0 | 0.0 | 0.00 | 0.00 | 0.00 | 86 | 1016.7 |
| 20260901150912 | 86 | 157 | 0.0 | 0.0 | 0.00 | 0.00 | 0.00 | 86 | 1016.7 |
| 20260901150410 | 87 | 90 | 0.0 | 0.0 | 0.00 | 0.00 | 0.00 | 85 | 1016.7 |
| 20260901145907 | 87 | 172 | 0.0 | 0.0 | 0.00 | 0.00 | 0.00 | 85 | 1016.7 |
| 20260901145407 | 87 | 76 | 0.0 | 0.0 | 0.00 | 0.00 | 0.00 | 85 | 1016.8 |
| 20260901144902 | 87 | 121 | 0.0 | 0.0 | 0.00 | 0.00 | 0.00 | 84 | 1016.6 |
| 20260901144358 | 89 | 158 | 0.0 | 0.0 | 0.00 | 0.00 | 0.00 | 83 | 1016.7 |
| 20260901143853 | 87 | 157 | 0.0 | 0.0 | 0.00 | 0.00 | 0.00 | 85 | 1016.4 |
| 20260901143349 | 87 | 179 | 0.0 | 0.0 | 0.00 | 0.00 | 0.00 | 85 | 1016.4 |
| 20260901142846 | 86 | 173 | 0.0 | 0.0 | 0.00 | 0.00 | 0.00 | 87 | 1016.7 |
| 20260901142344 | 85 | 143 | 0.0 | 0.0 | 0.00 | 0.00 | 0.00 | 91 | 1016.4 |
| 20260901141839 | 83 | 131 | 0.0 | 0.0 | 0.00 | 0.00 | 0.00 | 96 | 1016.5 |
| 20260901141335 | 82 | 162 | 0.0 | 0.0 | 0.00 | 0.00 | 0.00 | 99 | 1016.5 |
| 20260901140834 | 81 | 138 | 0.0 | 0.0 | 0.00 | 0.00 | 0.00 | 99 | 1016.2 |
| 20260901140332 | 80 | 159 | 0.0 | 0.0 | 0.00 | 0.00 | 0.00 | 99 | 1016.4 |
| 20260901135827 | 81 | 179 | 0.0 | 0.0 | 0.00 | 0.00 | 0.00 | 99 | 1016.4 |
| 20260901135322 | 80 | 164 | 0.0 | 0.0 | 0.00 | 0.00 | 0.00 | 99 | 1016.4 |
| 20260901134818 | 79 | 154 | 0.0 | 0.0 | 0.00 | 0.00 | 0.00 | 99 | 1016.3 |
| 20260901134313 | 79 | 115 | 0.0 | 0.0 | 0.00 | 0.00 | 0.00 | 99 | 1016.5 |
| 20260901133807 | 78 | 102 | 0.0 | 0.0 | 0.00 | 0.00 | 0.00 | 99 | 1016.5 |
| 20260901133306 | 78 | 167 | 0.0 | 0.0 | 0.00 | 0.00 | 0.00 | 99 | 1016.3 |
| 20260901132804 | 79 | 210 | 0.0 | 0.0 | 0.00 | 0.00 | 0.00 | 99 | 1016.2 |
| 20260901132300 | 78 | 159 | 0.0 | 0.0 | 0.00 | 0.00 | 0.00 | 99 | 1016.1 |
| 20260901131754 | 78 | 153 | 0.0 | 0.0 | 0.00 | 0.00 | 0.00 | 99 | 1016.2 |
| 20260901131254 | 78 | 139 | 0.0 | 0.0 | 0.00 | 0.00 | 0.00 | 99 | 1016.1 |
| 20260901130749 | 78 | 165 | 0.0 | 0.0 | 0.00 | 0.00 | 0.00 | 99 | 1016.2 |
| 20260901130249 | 78 | 159 | 0.0 | 0.0 | 0.00 | 0.00 | 0.00 | 99 | 1016.1 |
| 20260901125746 | 78 | 82 | 0.0 | 0.0 | 0.00 | 0.00 | 0.00 | 99 | 1015.9 |
| 20260901125241 | 78 | 132 | 0.0 | 0.0 | 0.00 | 0.00 | 0.00 | 99 | 1015.9 |
| 20260901124736 | 78 | 158 | 0.0 | 0.0 | 0.00 | 0.00 | 0.00 | 99 | 1015.9 |
| 20260901124230 | 78 | 124 | 0.0 | 0.0 | 0.00 | 0.00 | 0.00 | 99 | 1015.9 |
| 20260901123730 | 77 | 156 | 0.0 | 0.0 | 0.00 | 0.00 | 0.00 | 99 | 1015.8 |
| 20260901123225 | 77 | 166 | 0.0 | 0.0 | 0.00 | 0.00 | 0.00 | 99 | 1015.9 |
| 20260901122724 | 77 | 146 | 0.0 | 0.0 | 0.00 | 0.00 | 0.00 | 99 | 1015.7 |
| 20260901122219 | 77 | 128 | 0.0 | 0.0 | 0.00 | 0.00 | 0.00 | 99 | 1015.6 |
| 20260901121713 | 77 | 147 | 0.0 | 0.0 | 0.00 | 0.00 | 0.00 | 99 | 1015.7 |
| 20260901121208 | 77 | 170 | 0.0 | 0.0 | 0.00 | 0.00 | 0.00 | 99 | 1015.7 |
| 20260901120708 | 77 | 147 | 0.0 | 0.0 | 0.00 | 0.00 | 0.00 | 99 | 1015.4 |
| 20260901120203 | 77 | 153 | 0.0 | 0.0 | 0.00 | 0.00 | 0.00 | 99 | 1015.4 |
| 20260901115658 | 77 | 152 | 0.0 | 0.0 | 0.00 | 0.00 | 0.00 | 99 | 1015.6 |
| 20260901115154 | 76 | 170 | 0.0 | 0.0 | 0.00 | 0.00 | 0.00 | 99 | 1015.5 |
| 20260901114651 | 76 | 163 | 0.0 | 0.0 | 0.00 | 0.00 | 0.00 | 99 | 1015.4 |
| 20260901114150 | 76 | 165 | 0.0 | 0.0 | 0.00 | 0.00 | 0.00 | 99 | 1015.4 |
| 20260901113649 | 76 | 159 | 0.0 | 0.0 | 0.00 | 0.00 | 0.00 | 99 | 1015.4 |
| 20260901113145 | 76 | 161 | 0.0 | 0.0 | 0.00 | 0.00 | 0.00 | 99 | 1015.2 |
| 20260901112645 | 76 | 161 | 0.0 | 0.0 | 0.00 | 0.00 | 0.00 | 99 | 1015.4 |
| 20260901112144 | 76 | 161 | 0.0 | 0.0 | 0.00 | 0.00 | 0.00 | 99 | 1015.4 |
| 20260901111644 | 76 | 168 | 0.0 | 0.0 | 0.00 | 0.00 | 0.00 | 99 | 1015.5 |
| 20260901111138 | 76 | 179 | 0.0 | 0.0 | 0.00 | 0.00 | 0.00 | 99 | 1015.4 |
| 20260901110633 | 76 | 172 | 0.0 | 0.0 | 0.00 | 0.00 | 0.00 | 99 | 1015.2 |
| 20260901110128 | 76 | 179 | 0.0 | 0.0 | 0.00 | 0.00 | 0.00 | 99 | 1015.0 |
| 20260901105625 | 76 | 131 | 0.0 | 0.0 | 0.00 | 0.00 | 0.00 | 99 | 1015.2 |
| 20260901105124 | 76 | 161 | 0.0 | 0.0 | 0.00 | 0.00 | 0.00 | 99 | 1015.3 |
| 20260901104621 | 76 | 177 | 0.0 | 0.0 | 0.00 | 0.00 | 0.00 | 99 | 1015.1 |
| 20260901104115 | 76 | 127 | 0.0 | 0.0 | 0.00 | 0.00 | 0.00 | 99 | 1015.0 |
| 20260901103609 | 76 | 176 | 0.0 | 0.0 | 0.00 | 0.00 | 0.00 | 99 | 1015.0 |
| 20260901103105 | 76 | 161 | 0.0 | 0.0 | 0.00 | 0.00 | 0.00 | 99 | 1014.9 |
| 20260901102604 | 76 | 161 | 0.0 | 0.0 | 0.00 | 0.00 | 0.00 | 99 | 1014.8 |
| 20260901102059 | 76 | 176 | 0.0 | 0.0 | 0.00 | 0.00 | 0.00 | 99 | 1014.9 |
| 20260901101555 | 76 | 169 | 0.0 | 0.0 | 0.00 | 0.00 | 0.00 | 99 | 1014.8 |
| 20260901101054 | 76 | 161 | 0.0 | 0.0 | 0.00 | 0.00 | 0.00 | 99 | 1014.9 |
| 20260901100548 | 76 | 133 | 0.0 | 0.0 | 0.00 | 0.00 | 0.00 | 99 | 1014.7 |
| 20260901100048 | 76 | 176 | 0.0 | 0.0 | 0.00 | 0.00 | 0.00 | 99 | 1014.8 |
| 20260901095546 | 76 | 176 | 0.0 | 0.0 | 0.00 | 0.00 | 0.00 | 99 | 1014.8 |
| 20260901095044 | 75 | 147 | 0.0 | 0.0 | 0.00 | 0.00 | 0.00 | 99 | 1014.7 |
| 20260901094540 | 75 | 161 | 0.0 | 0.0 | 0.00 | 0.00 | 0.00 | 99 | 1014.5 |
| 20260901094039 | 75 | 176 | 0.0 | 0.0 | 0.00 | 0.00 | 0.00 | 99 | 1014.8 |
| 20260901093534 | 75 | 169 | 0.0 | 0.0 | 0.00 | 0.00 | 0.00 | 99 | 1014.9 |
| 20260901093028 | 75 | 169 | 0.0 | 0.0 | 0.00 | 0.00 | 0.00 | 99 | 1014.5 |
| 20260901092524 | 75 | 176 | 0.0 | 0.0 | 0.00 | 0.00 | 0.00 | 99 | 1014.6 |
| 20260901092020 | 75 | 169 | 0.0 | 0.0 | 0.00 | 0.00 | 0.00 | 99 | 1014.5 |
| 20260901091516 | 75 | 176 | 0.0 | 0.0 | 0.00 | 0.00 | 0.00 | 99 | 1014.5 |
| 20260901091016 | 75 | 170 | 0.0 | 0.0 | 0.00 | 0.00 | 0.00 | 99 | 1014.4 |
| 20260901090515 | 75 | 168 | 0.0 | 0.0 | 0.00 | 0.00 | 0.00 | 99 | 1014.5 |
| 20260901090011 | 75 | 174 | 0.0 | 0.0 | 0.00 | 0.00 | 0.00 | 99 | 1014.4 |
| 20260901085507 | 75 | 176 | 0.0 | 0.0 | 0.00 | 0.00 | 0.00 | 99 | 1014.1 |
| 20260901085003 | 75 | 172 | 0.0 | 0.0 | 0.00 | 0.00 | 0.00 | 99 | 1014.2 |
| 20260901084458 | 75 | 169 | 0.0 | 0.0 | 0.00 | 0.00 | 0.00 | 99 | 1014.3 |
| 20260901083955 | 75 | 161 | 0.0 | 0.0 | 0.00 | 0.00 | 0.00 | 99 | 1014.2 |
| 20260901083455 | 75 | 161 | 0.0 | 0.0 | 0.00 | 0.00 | 0.00 | 99 | 1014.1 |
| 20260901082952 | 75 | 161 | 0.0 | 0.0 | 0.00 | 0.00 | 0.00 | 99 | 1014.1 |
| 20260901082448 | 75 | 161 | 0.0 | 0.0 | 0.00 | 0.00 | 0.00 | 99 | 1014.3 |
| 20260901081943 | 75 | 161 | 0.0 | 0.0 | 0.00 | 0.00 | 0.00 | 99 | 1014.0 |
| 20260901081438 | 75 | 161 | 0.0 | 0.0 | 0.00 | 0.00 | 0.00 | 99 | 1014.3 |
| 20260901080933 | 75 | 161 | 0.0 | 0.0 | 0.00 | 0.00 | 0.00 | 99 | 1014.3 |
| 20260901080433 | 75 | 160 | 0.0 | 0.0 | 0.00 | 0.00 | 0.00 | 99 | 1014.4 |
| 20260901075932 | 75 | 160 | 0.0 | 0.0 | 0.00 | 0.00 | 0.00 | 99 | 1014.3 |
| 20260901075428 | 75 | 161 | 0.0 | 0.0 | 0.00 | 0.00 | 0.00 | 99 | 1014.3 |
| 20260901074927 | 75 | 161 | 0.0 | 0.0 | 0.00 | 0.00 | 0.00 | 99 | 1014.6 |
| 20260901074422 | 75 | 169 | 0.0 | 0.0 | 0.00 | 0.00 | 0.00 | 99 | 1014.4 |
| 20260901073917 | 75 | 169 | 0.0 | 0.0 | 0.00 | 0.00 | 0.00 | 99 | 1014.3 |
| 20260901073414 | 75 | 161 | 0.0 | 0.0 | 0.00 | 0.00 | 0.00 | 99 | 1014.5 |
| 20260901072909 | 75 | 169 | 0.0 | 0.0 | 0.00 | 0.00 | 0.00 | 99 | 1014.6 |
| 20260901072409 | 75 | 168 | 0.0 | 0.0 | 0.00 | 0.00 | 0.00 | 99 | 1014.6 |
| 20260901071904 | 75 | 169 | 0.0 | 0.0 | 0.00 | 0.00 | 0.00 | 99 | 1014.5 |
| 20260901071403 | 75 | 168 | 0.0 | 0.0 | 0.00 | 0.00 | 0.00 | 99 | 1014.7 |
| 20260901070901 | 75 | 172 | 0.0 | 0.0 | 0.00 | 0.00 | 0.00 | 99 | 1014.7 |
| 20260901070357 | 75 | 176 | 0.0 | 0.0 | 0.00 | 0.00 | 0.00 | 99 | 1015.0 |
| 20260901065856 | 75 | 147 | 0.0 | 0.0 | 0.00 | 0.00 | 0.00 | 99 | 1014.9 |
| 20260901065351 | 75 | 169 | 0.0 | 0.0 | 0.00 | 0.00 | 0.00 | 99 | 1015.0 |
| 20260901064847 | 75 | 169 | 0.0 | 0.0 | 0.00 | 0.00 | 0.00 | 99 | 1015.0 |
| 20260901064343 | 75 | 161 | 0.0 | 0.0 | 0.00 | 0.00 | 0.00 | 99 | 1015.2 |
| 20260901063840 | 75 | 158 | 0.0 | 0.0 | 0.00 | 0.00 | 0.00 | 99 | 1015.0 |
| 20260901063336 | 75 | 115 | 0.0 | 0.0 | 0.00 | 0.00 | 0.00 | 99 | 1015.1 |
| 20260901062832 | 75 | 161 | 0.0 | 0.0 | 0.00 | 0.00 | 0.00 | 99 | 1015.5 |
| 20260901062328 | 75 | 169 | 0.0 | 0.0 | 0.00 | 0.00 | 0.00 | 99 | 1015.5 |
| 20260901061824 | 75 | 169 | 0.0 | 0.0 | 0.00 | 0.00 | 0.00 | 99 | 1015.5 |
| 20260901061319 | 75 | 169 | 0.0 | 0.0 | 0.00 | 0.00 | 0.00 | 99 | 1015.5 |
| 20260901060814 | 75 | 169 | 0.0 | 0.0 | 0.00 | 0.00 | 0.00 | 99 | 1015.6 |
| 20260901060310 | 75 | 161 | 0.0 | 0.0 | 0.00 | 0.00 | 0.00 | 99 | 1015.6 |
| 20260901055804 | 75 | 161 | 0.0 | 0.0 | 0.00 | 0.00 | 0.00 | 99 | 1015.6 |
| 20260901055300 | 75 | 165 | 0.0 | 0.0 | 0.00 | 0.00 | 0.00 | 99 | 1015.9 |
| 20260901054757 | 75 | 168 | 0.0 | 0.0 | 0.00 | 0.00 | 0.00 | 99 | 1015.6 |
| 20260901054254 | 75 | 165 | 0.0 | 0.0 | 0.00 | 0.00 | 0.00 | 99 | 1016.0 |
| 20260901053749 | 75 | 162 | 0.0 | 0.0 | 0.00 | 0.00 | 0.00 | 99 | 1015.9 |
| 20260901053244 | 75 | 165 | 0.0 | 0.0 | 0.00 | 0.00 | 0.00 | 99 | 1016.2 |
| 20260901052739 | 75 | 162 | 0.0 | 0.0 | 0.00 | 0.00 | 0.00 | 99 | 1015.8 |
| 20260901052235 | 75 | 161 | 0.0 | 0.0 | 0.00 | 0.00 | 0.00 | 99 | 1016.1 |
| 20260901051734 | 75 | 162 | 0.0 | 0.0 | 0.00 | 0.00 | 0.00 | 99 | 1016.1 |
| 20260901051228 | 75 | 161 | 0.0 | 0.0 | 0.00 | 0.00 | 0.00 | 99 | 1016.1 |
| 20260901050724 | 75 | 161 | 0.0 | 0.0 | 0.00 | 0.00 | 0.00 | 99 | 1016.1 |
| 20260901050219 | 75 | 161 | 0.0 | 0.0 | 0.00 | 0.00 | 0.00 | 99 | 1016.2 |
| 20260901045714 | 75 | 161 | 0.0 | 0.0 | 0.00 | 0.00 | 0.00 | 99 | 1016.0 |
| 20260901045209 | 75 | 161 | 0.0 | 0.0 | 0.00 | 0.00 | 0.00 | 99 | 1016.0 |
| 20260901044704 | 75 | 150 | 0.0 | 0.0 | 0.00 | 0.00 | 0.00 | 99 | 1016.2 |
| 20260901044201 | 75 | 155 | 0.0 | 0.0 | 0.00 | 0.00 | 0.00 | 99 | 1016.2 |
| 20260901043656 | 75 | 150 | 0.0 | 0.0 | 0.00 | 0.00 | 0.00 | 99 | 1016.3 |
| 20260901043151 | 75 | 161 | 0.0 | 0.0 | 0.00 | 0.00 | 0.00 | 99 | 1016.3 |
| 20260901042650 | 75 | 156 | 0.0 | 0.0 | 0.00 | 0.00 | 0.00 | 99 | 1016.4 |
| 20260901042145 | 75 | 151 | 0.0 | 0.0 | 0.00 | 0.00 | 0.00 | 99 | 1016.4 |
| 20260901041642 | 75 | 157 | 0.0 | 0.0 | 0.00 | 0.00 | 0.00 | 99 | 1016.3 |
| 20260901041136 | 75 | 156 | 0.0 | 0.0 | 0.00 | 0.00 | 0.00 | 99 | 1016.3 |
| 20260901040636 | 76 | 151 | 0.0 | 0.0 | 0.00 | 0.00 | 0.00 | 99 | 1016.5 |
| 20260901040136 | 76 | 151 | 0.0 | 0.0 | 0.00 | 0.00 | 0.00 | 99 | 1016.5 |
| 20260901035634 | 76 | 156 | 0.0 | 0.0 | 0.00 | 0.25 | 0.25 | 99 | 1016.5 |
| 20260901035132 | 76 | 156 | 0.0 | 0.0 | 0.00 | 0.25 | 0.25 | 99 | 1016.3 |
| 20260901034627 | 76 | 156 | 0.0 | 0.0 | 0.00 | 0.25 | 0.25 | 99 | 1016.5 |
| 20260901034121 | 76 | 146 | 0.0 | 0.0 | 0.00 | 0.25 | 0.25 | 99 | 1016.4 |
| 20260901033620 | 76 | 146 | 0.0 | 0.0 | 0.00 | 0.25 | 0.25 | 99 | 1016.5 |
| 20260901033115 | 76 | 157 | 0.0 | 0.0 | 0.00 | 0.25 | 0.25 | 99 | 1016.6 |
| 20260901032613 | 76 | 152 | 0.0 | 0.0 | 0.00 | 0.25 | 0.25 | 99 | 1016.4 |
| 20260901032108 | 76 | 151 | 0.0 | 0.0 | 0.00 | 0.25 | 0.25 | 99 | 1016.3 |
| 20260901031604 | 76 | 152 | 0.0 | 0.0 | 0.00 | 0.25 | 0.25 | 99 | 1016.5 |
| 20260901031100 | 76 | 148 | 0.0 | 0.0 | 0.00 | 0.25 | 0.25 | 99 | 1016.4 |
| 20260901030559 | 76 | 150 | 0.0 | 0.0 | 0.00 | 0.25 | 0.25 | 99 | 1016.6 |
| 20260901030054 | 76 | 149 | 0.0 | 0.0 | 0.00 | 0.25 | 0.25 | 99 | 1016.6 |
| 20260901025554 | 76 | 153 | 0.0 | 0.0 | 0.00 | 0.25 | 0.25 | 99 | 1016.6 |
| 20260901025049 | 76 | 152 | 0.0 | 0.0 | 0.00 | 0.25 | 0.25 | 99 | 1016.4 |
| 20260901024544 | 76 | 155 | 0.0 | 0.0 | 0.00 | 0.25 | 0.25 | 99 | 1016.6 |
| 20260901024042 | 76 | 155 | 0.0 | 0.0 | 0.00 | 0.25 | 0.25 | 99 | 1016.8 |
| 20260901023541 | 76 | 152 | 0.0 | 0.0 | 0.00 | 0.25 | 0.25 | 99 | 1016.3 |
| 20260901023036 | 76 | 152 | 0.0 | 0.0 | 0.00 | 0.25 | 0.25 | 99 | 1016.4 |
| 20260901022531 | 76 | 148 | 0.0 | 0.0 | 0.00 | 0.25 | 0.25 | 99 | 1016.6 |
| 20260901022027 | 76 | 152 | 0.0 | 0.0 | 0.00 | 0.25 | 0.25 | 99 | 1016.7 |
| 20260901021522 | 76 | 151 | 0.0 | 0.0 | 0.00 | 0.25 | 0.25 | 99 | 1016.2 |
| 20260901021018 | 76 | 147 | 0.0 | 0.0 | 0.00 | 0.25 | 0.25 | 99 | 1016.3 |
| 20260901020513 | 76 | 147 | 0.0 | 0.0 | 0.00 | 0.25 | 0.25 | 99 | 1016.3 |
| 20260901020008 | 76 | 150 | 0.0 | 0.0 | 0.00 | 0.25 | 0.25 | 99 | 1016.1 |
| 20260901015503 | 77 | 148 | 0.0 | 0.0 | 0.00 | 0.25 | 0.25 | 99 | 1016.1 |
| 20260901015003 | 77 | 142 | 0.0 | 0.0 | 0.00 | 0.25 | 0.25 | 99 | 1015.8 |
| 20260901014459 | 77 | 152 | 0.0 | 0.0 | 0.00 | 0.25 | 0.25 | 99 | 1016.0 |
| 20260901013954 | 77 | 151 | 0.0 | 0.0 | 0.00 | 0.25 | 0.25 | 99 | 1016.1 |
| 20260901013450 | 77 | 150 | 0.0 | 0.0 | 0.00 | 0.25 | 0.25 | 99 | 1016.1 |
| 20260901012946 | 77 | 149 | 0.0 | 0.0 | 0.00 | 0.25 | 0.25 | 98 | 1015.9 |
| 20260901012445 | 77 | 148 | 0.0 | 0.0 | 0.00 | 0.25 | 0.25 | 98 | 1016.0 |
| 20260901011940 | 77 | 144 | 0.0 | 0.0 | 0.00 | 0.25 | 0.25 | 98 | 1016.0 |
| 20260901011437 | 77 | 151 | 0.0 | 0.0 | 0.00 | 0.25 | 0.25 | 98 | 1015.8 |
| 20260901010935 | 77 | 148 | 0.0 | 0.0 | 0.00 | 0.25 | 0.25 | 98 | 1015.7 |
| 20260901010430 | 78 | 147 | 0.0 | 0.0 | 0.00 | 0.25 | 0.25 | 97 | 1015.6 |
| 20260901005929 | 78 | 142 | 0.0 | 0.0 | 0.00 | 0.25 | 0.25 | 97 | 1015.6 |
| 20260901005424 | 78 | 147 | 0.0 | 0.0 | 0.00 | 0.25 | 0.25 | 96 | 1015.6 |
| 20260901004919 | 78 | 159 | 0.0 | 0.0 | 0.00 | 0.25 | 0.25 | 96 | 1015.5 |
| 20260901004418 | 78 | 144 | 0.0 | 0.0 | 0.00 | 0.25 | 0.25 | 96 | 1015.4 |
| 20260901003913 | 78 | 163 | 0.0 | 0.0 | 0.00 | 0.25 | 0.25 | 96 | 1015.6 |
| 20260901003409 | 78 | 159 | 0.0 | 0.0 | 0.00 | 0.25 | 0.25 | 96 | 1015.6 |
| 20260901002907 | 78 | 154 | 0.0 | 0.0 | 0.00 | 0.25 | 0.25 | 96 | 1015.6 |
| 20260901002406 | 78 | 146 | 0.0 | 0.0 | 0.00 | 0.25 | 0.25 | 95 | 1015.6 |
| 20260901001901 | 78 | 150 | 0.0 | 0.0 | 0.00 | 0.25 | 0.25 | 95 | 1015.6 |
| 20260901001357 | 78 | 162 | 0.0 | 0.0 | 0.00 | 0.25 | 0.25 | 94 | 1015.4 |
| 20260901000852 | 78 | 162 | 0.0 | 0.0 | 0.00 | 0.25 | 0.25 | 94 | 1015.4 |
| 20260901000347 | 78 | 161 | 0.0 | 0.0 | 0.00 | 0.25 | 0.25 | 94 | 1015.6 |
| 20260831235845 | 79 | 163 | 0.0 | 0.0 | 0.00 | 0.25 | 0.25 | 94 | 1015.4 |
| 20260831235342 | 79 | 162 | 0.0 | 0.0 | 0.00 | 0.25 | 0.25 | 95 | 1015.5 |
| 20260831234837 | 79 | 170 | 0.0 | 0.0 | 0.00 | 0.25 | 0.25 | 94 | 1015.5 |
| 20260831234336 | 79 | 171 | 0.0 | 0.0 | 0.00 | 0.25 | 0.25 | 94 | 1015.3 |
| 20260831233832 | 79 | 162 | 0.0 | 0.0 | 0.00 | 0.25 | 0.25 | 94 | 1015.7 |
| 20260831233327 | 79 | 159 | 0.0 | 0.0 | 0.00 | 0.25 | 0.25 | 94 | 1015.4 |
| 20260831232822 | 79 | 151 | 0.0 | 0.0 | 0.00 | 0.25 | 0.25 | 94 | 1015.5 |
| 20260831232319 | 79 | 163 | 0.0 | 0.0 | 0.00 | 0.25 | 0.25 | 94 | 1015.4 |
| 20260831231814 | 79 | 148 | 0.0 | 0.0 | 0.00 | 0.25 | 0.25 | 94 | 1015.4 |
| 20260831231311 | 79 | 149 | 0.0 | 0.0 | 0.00 | 0.25 | 0.25 | 94 | 1015.1 |
| 20260831230805 | 79 | 148 | 0.0 | 0.0 | 0.00 | 0.25 | 0.25 | 94 | 1015.2 |
| 20260831230301 | 79 | 131 | 0.0 | 0.0 | 0.00 | 0.25 | 0.25 | 94 | 1015.1 |
| 20260831225800 | 79 | 141 | 0.0 | 0.0 | 0.00 | 0.25 | 0.25 | 95 | 1015.3 |
| 20260831225255 | 79 | 155 | 0.0 | 0.0 | 0.00 | 0.25 | 0.25 | 95 | 1015.1 |
| 20260831224750 | 79 | 143 | 0.0 | 0.0 | 0.00 | 0.25 | 0.25 | 96 | 1015.2 |
| 20260831224246 | 79 | 156 | 0.0 | 0.0 | 0.00 | 0.25 | 0.25 | 96 | 1015.2 |
| 20260831223740 | 78 | 160 | 0.0 | 0.0 | 0.00 | 0.25 | 0.25 | 96 | 1015.4 |
| 20260831223237 | 78 | 153 | 0.0 | 0.0 | 0.00 | 0.25 | 0.25 | 97 | 1015.6 |
| 20260831222733 | 78 | 146 | 0.0 | 0.0 | 0.00 | 0.25 | 0.25 | 97 | 1015.6 |
| 20260831222228 | 78 | 164 | 0.0 | 0.0 | 0.00 | 0.25 | 0.25 | 97 | 1015.5 |
| 20260831221724 | 78 | 159 | 0.0 | 0.0 | 0.00 | 0.25 | 0.25 | 97 | 1015.5 |
| 20260831221219 | 78 | 161 | 0.0 | 0.0 | 0.00 | 0.25 | 0.25 | 98 | 1015.5 |
| 20260831220714 | 77 | 172 | 0.0 | 0.0 | 0.00 | 0.25 | 0.25 | 98 | 1015.7 |
| 20260831220209 | 78 | 161 | 0.0 | 0.0 | 0.00 | 0.25 | 0.25 | 98 | 1015.6 |
| 20260831215704 | 78 | 141 | 0.0 | 0.0 | 0.00 | 0.25 | 0.25 | 98 | 1015.6 |
| 20260831215200 | 77 | 103 | 0.0 | 0.0 | 0.00 | 0.25 | 0.25 | 98 | 1015.7 |
| 20260831214657 | 77 | 152 | 0.0 | 0.0 | 0.00 | 0.25 | 0.25 | 98 | 1015.6 |
| 20260831214153 | 77 | 153 | 0.0 | 0.0 | 0.00 | 0.25 | 0.25 | 98 | 1015.7 |
| 20260831213649 | 77 | 93 | 0.0 | 0.0 | 0.00 | 0.25 | 0.25 | 98 | 1015.6 |
| 20260831213144 | 78 | 152 | 0.0 | 0.0 | 0.00 | 0.25 | 0.25 | 98 | 1015.3 |
| 20260831212640 | 77 | 127 | 0.0 | 1.0 | 0.00 | 0.25 | 0.25 | 98 | 1015.1 |
| 20260831212137 | 77 | 152 | 0.0 | 1.0 | 0.00 | 0.25 | 0.25 | 98 | 1015.1 |
| 20260831211635 | 78 | 126 | 0.0 | 2.0 | 0.00 | 0.25 | 0.25 | 98 | 1015.6 |
| 20260831211135 | 78 | 143 | 0.0 | 0.0 | 0.00 | 0.25 | 0.25 | 98 | 1015.4 |
| 20260831210630 | 79 | 47 | 0.0 | 2.0 | 0.00 | 0.25 | 0.25 | 98 | 1015.0 |
| 20260831210127 | 78 | 126 | 0.0 | 0.0 | 0.00 | 0.25 | 0.25 | 98 | 1015.2 |
| 20260831205625 | 78 | 141 | 0.0 | 0.0 | 0.05 | 0.25 | 0.25 | 98 | 1015.5 |
| 20260831205122 | 78 | 97 | 0.0 | 0.0 | 0.05 | 0.25 | 0.25 | 98 | 1015.4 |
| 20260831204621 | 78 | 92 | 0.0 | 0.0 | 0.07 | 0.24 | 0.24 | 97 | 1015.2 |
| 20260831204120 | 77 | 146 | 0.0 | 0.0 | 0.26 | 0.24 | 0.24 | 97 | 1015.4 |
| 20260831203615 | 77 | 128 | 0.0 | 0.0 | 0.54 | 0.23 | 0.23 | 97 | 1015.5 |
| 20260831203114 | 78 | 155 | 0.0 | 0.0 | 0.59 | 0.21 | 0.21 | 97 | 1014.8 |
| 20260831202613 | 79 | 134 | 0.0 | 0.0 | 0.42 | 0.15 | 0.15 | 96 | 1014.9 |
| 20260831202108 | 79 | 48 | 2.0 | 3.0 | 0.42 | 0.11 | 0.11 | 96 | 1015.0 |
| 20260831201606 | 81 | 97 | 0.0 | 0.0 | 0.35 | 0.08 | 0.08 | 94 | 1014.9 |
| 20260831201102 | 83 | 142 | 1.0 | 2.0 | 0.24 | 0.04 | 0.04 | 93 | 1015.1 |
| 20260831200557 | 84 | 131 | 2.0 | 5.0 | 0.12 | 0.02 | 0.02 | 90 | 1014.9 |
| 20260831200052 | 87 | 75 | 0.0 | 1.0 | 0.00 | 0.00 | 0.00 | 80 | 1015.0 |
| 20260831195548 | 89 | 160 | 1.0 | 3.0 | 0.00 | 0.00 | 0.00 | 75 | 1014.9 |
| 20260831195042 | 92 | 181 | 0.0 | 0.0 | 0.00 | 0.00 | 0.00 | 70 | 1014.8 |
| 20260831194537 | 91 | 139 | 0.0 | 0.0 | 0.00 | 0.00 | 0.00 | 69 | 1014.7 |
| 20260831194032 | 91 | 220 | 0.0 | 0.0 | 0.00 | 0.00 | 0.00 | 69 | 1014.6 |
| 20260831193527 | 91 | 169 | 0.0 | 0.0 | 0.00 | 0.00 | 0.00 | 67 | 1014.5 |
| 20260831193022 | 91 | 162 | 0.0 | 0.0 | 0.00 | 0.00 | 0.00 | 67 | 1014.4 |
| 20260831192517 | 92 | 23 | 0.0 | 0.0 | 0.00 | 0.00 | 0.00 | 68 | 1014.4 |
| 20260831192013 | 91 | 133 | 0.0 | 0.0 | 0.00 | 0.00 | 0.00 | 67 | 1014.3 |
| 20260831191509 | 92 | 220 | 0.0 | 0.0 | 0.00 | 0.00 | 0.00 | 67 | 1014.4 |
| 20260831191005 | 91 | 256 | 0.0 | 0.0 | 0.00 | 0.00 | 0.00 | 65 | 1014.5 |
| 20260831190500 | 91 | 258 | 0.0 | 0.0 | 0.00 | 0.00 | 0.00 | 68 | 1014.5 |
| 20260831185958 | 91 | 148 | 0.0 | 0.0 | 0.00 | 0.00 | 0.00 | 68 | 1014.7 |
| 20260831185454 | 93 | 195 | 0.0 | 0.0 | 0.00 | 0.00 | 0.00 | 65 | 1014.7 |
| 20260831184954 | 94 | 230 | 0.0 | 0.0 | 0.00 | 0.00 | 0.00 | 66 | 1014.6 |
| 20260831184449 | 95 | 189 | 0.0 | 0.0 | 0.00 | 0.00 | 0.00 | 62 | 1014.7 |
| 20260831183944 | 95 | 192 | 0.0 | 0.0 | 0.00 | 0.00 | 0.00 | 58 | 1015.0 |
| 20260831183444 | 94 | 176 | 0.0 | 0.0 | 0.00 | 0.00 | 0.00 | 65 | 1014.8 |
| 20260831182943 | 93 | 198 | 0.0 | 0.0 | 0.00 | 0.00 | 0.00 | 64 | 1015.3 |
| 20260831182439 | 94 | 165 | 0.0 | 0.0 | 0.00 | 0.00 | 0.00 | 61 | 1015.3 |
| 20260831181934 | 94 | 321 | 0.0 | 0.0 | 0.00 | 0.00 | 0.00 | 63 | 1015.3 |
| 20260831181430 | 92 | 271 | 0.0 | 0.0 | 0.00 | 0.00 | 0.00 | 64 | 1015.5 |
| 20260831180929 | 91 | 256 | 0.0 | 0.0 | 0.00 | 0.00 | 0.00 | 64 | 1015.3 |
| 20260831180424 | 92 | 236 | 0.0 | 0.0 | 0.00 | 0.00 | 0.00 | 64 | 1015.6 |
| 20260831175923 | 93 | 173 | 0.0 | 0.0 | 0.00 | 0.00 | 0.00 | 66 | 1015.6 |
| 20260831175420 | 94 | 85 | 0.0 | 0.0 | 0.00 | 0.00 | 0.00 | 61 | 1015.7 |
| 20260831174915 | 95 | 194 | 0.0 | 0.0 | 0.00 | 0.00 | 0.00 | 60 | 1015.7 |
| 20260831174410 | 94 | 163 | 0.0 | 0.0 | 0.00 | 0.00 | 0.00 | 62 | 1015.8 |
| 20260831173909 | 93 | 177 | 0.0 | 0.0 | 0.00 | 0.00 | 0.00 | 65 | 1016.0 |